Weather History for KLKR - January, 2014

Change the Weather History Date:

Friday, January 10, 2014

  Actual Average (KUZA) Record (KUZA)
Temperature  
Mean Temperature 44 °F -  
Max Temperature 46 °F 47 °F 77 °F (1949)
Min Temperature 41 °F 31 °F 4 °F (1970)
Degree Days  
Heating Degree Days 22    
Moisture  
Dew Point 43 °F    
Average Humidity 100    
Maximum Humidity 100    
Minimum Humidity 93    
Precipitation  
Precipitation 1.47 in - - ()
Sea Level Pressure  
Sea Level Pressure 30.25 in    
Wind  
Wind Speed 3 mph (NNE)    
Max Wind Speed 12 mph    
Max Gust Speed 16 mph    
Visibility 4 miles    
Events Rain    
Averages and records for this station are not official NWS values.
T = Trace of Precipitation, MM = Missing Value Source: NWS Daily Summary

Daily Weather History Graph

Daily Weather History Graph

Search for Another Location

Airport or City:

Trip Planner

Search our weather history database for the weather conditions in past years. The results will help you decide how hot, cold, wet, or windy it might be!

Date:

Astronomy

Jan. 10, 2014 Rise Set
Actual Time 7:31 AM EST 5:31 PM EST
Civil Twilight 7:03 AM EST 5:58 PM EST
Nautical Twilight 6:32 AM EST 6:29 PM EST
Astronomical Twilight 6:01 AM EST 7:00 PM EST
Moon 1:30 PM EST (1/10) 2:41 AM EST (1/10)
Length of Visible Light 10h 55m
Length of Day
9h 59m
Waxing Gibbous, 75% of the Moon is Illuminated
Jan 10
Waxing Gibbous
Jan 15
Full
Jan 24
Last Quarter
Jan 30
New
Feb 6
First Quarter

Hourly Weather History & Observations

Time (EST) Temp. Windchill Dew Point Humidity Pressure Visibility Wind Dir Wind Speed Gust Speed Precip Events Conditions
12:15 AM 42.8 °F - 41.0 °F 93% 30.41 in 10.0 mi Calm Calm - N/A Rain Light Rain
12:35 AM 42.8 °F - 41.0 °F 93% 30.41 in 10.0 mi Calm Calm - N/A   Overcast
12:55 AM 42.8 °F - 41.0 °F 93% 30.40 in 9.0 mi Calm Calm - N/A   Overcast
1:15 AM 41.0 °F - 41.0 °F 100% 30.39 in 9.0 mi Calm Calm - 0.01 in Rain Light Rain
1:35 AM 41.0 °F - 41.0 °F 100% 30.39 in 10.0 mi Calm Calm - 0.01 in   Mostly Cloudy
1:55 AM 41.0 °F - 41.0 °F 100% 30.39 in 10.0 mi Calm Calm - 0.01 in   Overcast
2:35 AM 41.0 °F - 41.0 °F 100% 30.37 in 3.0 mi Calm Calm - 0.03 in Rain Light Rain
2:55 AM 41.0 °F 37.1 °F 41.0 °F 100% 30.37 in 5.0 mi NNE 5.8 mph - 0.05 in Rain Light Rain
3:15 AM 41.0 °F 39.0 °F 41.0 °F 100% 30.36 in 4.0 mi North 3.5 mph - 0.01 in Rain Light Rain
3:35 AM 41.0 °F 36.4 °F 41.0 °F 100% 30.36 in 9.0 mi NE 6.9 mph - 0.01 in   Mostly Cloudy
3:55 AM 41.0 °F 39.0 °F 41.0 °F 100% 30.35 in 3.0 mi NE 3.5 mph - 0.06 in Rain Light Rain
4:15 AM 41.0 °F 36.4 °F 41.0 °F 100% 30.34 in 4.0 mi NE 6.9 mph - 0.02 in Rain Light Rain
4:35 AM 41.0 °F 38.0 °F 41.0 °F 100% 30.35 in 4.0 mi North 4.6 mph - 0.02 in Rain Light Rain
4:55 AM 41.0 °F 37.1 °F 41.0 °F 100% 30.34 in 3.0 mi NNE 5.8 mph - 0.02 in Rain Light Rain
5:15 AM 41.0 °F 35.8 °F 41.0 °F 100% 30.32 in 4.0 mi NNE 8.1 mph - N/A Rain Light Rain
5:35 AM 41.0 °F 37.1 °F 41.0 °F 100% 30.33 in 3.0 mi North 5.8 mph - 0.04 in Rain Light Rain
5:55 AM 41.0 °F 38.0 °F 41.0 °F 100% 30.33 in 3.0 mi NNE 4.6 mph - 0.04 in Rain Light Rain
6:15 AM 41.0 °F 35.8 °F 41.0 °F 100% 30.32 in 2.5 mi NNE 8.1 mph - N/A Rain Light Rain
6:35 AM 41.0 °F 35.8 °F 41.0 °F 100% 30.32 in 4.0 mi NNE 8.1 mph - 0.01 in Rain Light Rain
6:55 AM 41.0 °F 36.4 °F 41.0 °F 100% 30.33 in 5.0 mi NNE 6.9 mph - 0.01 in Rain Light Rain
7:15 AM 41.0 °F 37.1 °F 41.0 °F 100% 30.33 in 2.5 mi NNE 5.8 mph - N/A Rain Light Rain
7:35 AM 41.0 °F 36.4 °F 41.0 °F 100% 30.33 in 3.0 mi NNE 6.9 mph - N/A Rain Light Rain
7:55 AM 41.0 °F 38.0 °F 41.0 °F 100% 30.33 in 2.0 mi NNE 4.6 mph - 0.01 in Rain Light Rain
8:15 AM 41.0 °F 39.0 °F 41.0 °F 100% 30.34 in 3.0 mi NNE 3.5 mph - N/A Rain Light Rain
8:35 AM 41.0 °F 38.0 °F 41.0 °F 100% 30.33 in 2.5 mi NNE 4.6 mph - N/A   Overcast
8:55 AM 41.0 °F 38.0 °F 41.0 °F 100% 30.33 in 3.0 mi NE 4.6 mph - N/A   Overcast
9:15 AM 41.0 °F - 41.0 °F 100% 30.33 in 1.0 mi Calm Calm - 0.04 in Rain Light Rain
9:35 AM 41.0 °F 37.1 °F 41.0 °F 100% 30.33 in 2.0 mi NE 5.8 mph - 0.12 in Rain Light Rain
9:55 AM 41.0 °F 37.1 °F 41.0 °F 100% 30.34 in 3.0 mi North 5.8 mph - 0.12 in   Overcast
10:15 AM 41.0 °F 38.0 °F 41.0 °F 100% 30.35 in 4.0 mi West 4.6 mph - 0.01 in   Overcast
10:35 AM 42.8 °F 39.3 °F 42.8 °F 100% 30.33 in 4.0 mi North 5.8 mph - 0.02 in Rain Light Rain
10:55 AM 42.8 °F 40.1 °F 42.8 °F 100% 30.31 in 2.5 mi NE 4.6 mph - 0.03 in Rain Light Rain
11:15 AM 42.8 °F 39.3 °F 42.8 °F 100% 30.31 in 3.0 mi NNE 5.8 mph - N/A Rain Light Rain
11:35 AM 42.8 °F 38.6 °F 42.8 °F 100% 30.29 in 1.2 mi NNE 6.9 mph - 0.05 in Rain Light Rain
11:55 AM 42.8 °F 40.1 °F 42.8 °F 100% 30.27 in 2.5 mi NNE 4.6 mph - 0.05 in Rain Light Rain
12:15 PM 44.6 °F 42.2 °F 44.6 °F 100% 30.25 in 5.0 mi NNE 4.6 mph - 0.01 in   Overcast
12:35 PM 44.6 °F 43.1 °F 44.6 °F 100% 30.24 in 3.0 mi ENE 3.5 mph - 0.01 in   Overcast
12:55 PM 44.6 °F 42.2 °F 44.6 °F 100% 30.23 in 3.0 mi North 4.6 mph - 0.01 in Rain Light Rain
1:15 PM 44.6 °F - 44.6 °F 100% 30.23 in 2.5 mi Calm Calm - 0.03 in Rain Light Rain
1:35 PM 44.6 °F 43.1 °F 44.6 °F 100% 30.22 in 2.0 mi NNE 3.5 mph - 0.11 in Rain Light Rain
1:55 PM 44.6 °F 42.2 °F 44.6 °F 100% 30.21 in 1.5 mi North 4.6 mph - 0.27 in Rain Light Rain
2:15 PM 44.6 °F 40.7 °F 44.6 °F 100% 30.21 in 2.0 mi North 6.9 mph - 0.08 in Rain Light Rain
2:35 PM 44.6 °F 41.4 °F 44.6 °F 100% 30.19 in 9.0 mi NE 5.8 mph - 0.12 in Rain Light Rain
2:55 PM 44.6 °F 40.7 °F 44.6 °F 100% 30.18 in 3.0 mi NNE 6.9 mph - 0.15 in Rain Light Rain
3:15 PM 44.6 °F 43.1 °F 44.6 °F 100% 30.19 in 2.5 mi NNE 3.5 mph - 0.04 in Rain Light Rain
3:35 PM 44.6 °F 38.8 °F 44.6 °F 100% 30.21 in 3.0 mi SW 11.5 mph 16.1 mph 0.08 in Rain Light Rain
3:55 PM 44.6 °F 41.4 °F 44.6 °F 100% 30.17 in 1.2 mi NE 5.8 mph - 0.27 in Rain Light Rain
4:15 PM 44.6 °F 43.1 °F 44.6 °F 100% 30.15 in 2.5 mi NE 3.5 mph - 0.04 in Rain Light Rain
4:35 PM 44.6 °F - 44.6 °F 100% 30.19 in 2.5 mi Calm Calm - 0.13 in Rain Light Rain
4:55 PM 44.6 °F 42.2 °F 44.6 °F 100% 30.17 in 6.0 mi NNE 4.6 mph - 0.15 in Rain Light Rain
5:15 PM 44.6 °F 41.4 °F 44.6 °F 100% 30.17 in 8.0 mi NNE 5.8 mph - 0.01 in Rain Light Rain
5:35 PM 44.6 °F 43.1 °F 44.6 °F 100% 30.17 in 10.0 mi North 3.5 mph - 0.01 in   Overcast
5:55 PM 44.6 °F 43.1 °F 44.6 °F 100% 30.17 in 10.0 mi North 3.5 mph - 0.01 in   Overcast
6:15 PM 44.6 °F 42.2 °F 44.6 °F 100% 30.17 in 10.0 mi NNE 4.6 mph - N/A   Overcast
6:35 PM 44.6 °F 41.4 °F 44.6 °F 100% 30.17 in 7.0 mi NNE 5.8 mph - 0.02 in Rain Light Rain
6:55 PM 44.6 °F 43.1 °F 44.6 °F 100% 30.16 in 10.0 mi NNE 3.5 mph - 0.03 in Rain Light Rain
7:15 PM 44.6 °F - 44.6 °F 100% 30.16 in 10.0 mi Calm Calm - N/A   Overcast
7:35 PM 44.6 °F - 44.6 °F 100% 30.16 in 4.0 mi Calm Calm - 0.04 in Rain Light Rain
7:55 PM 44.6 °F - 44.6 °F 100% 30.16 in 3.0 mi Calm Calm - 0.10 in Rain Light Rain
8:15 PM 44.6 °F - 44.6 °F 100% 30.15 in 4.0 mi Calm Calm - 0.06 in Rain Light Rain
8:35 PM 44.6 °F 42.2 °F 44.6 °F 100% 30.15 in 5.0 mi NNE 4.6 mph - 0.06 in   Overcast
8:55 PM 44.6 °F - 44.6 °F 100% 30.13 in 7.0 mi Calm Calm - 0.07 in   Overcast
9:15 PM 44.6 °F 43.1 °F 44.6 °F 100% 30.13 in 10.0 mi NNE 3.5 mph - N/A   Overcast
9:35 PM 44.6 °F - 44.6 °F 100% 30.13 in 4.0 mi Calm Calm - N/A   Overcast
9:55 PM 46.4 °F 45.2 °F 46.4 °F 100% 30.12 in 4.0 mi NE 3.5 mph - N/A   Overcast
10:15 PM 46.4 °F - 46.4 °F 100% 30.11 in 4.0 mi Calm Calm - N/A   Overcast
10:35 PM 46.4 °F - 46.4 °F 100% 30.11 in 4.0 mi Calm Calm - N/A   Overcast
10:55 PM 46.4 °F 45.2 °F 46.4 °F 100% 30.10 in 1.0 mi NNE 3.5 mph - N/A   Overcast
11:15 PM 46.4 °F - 46.4 °F 100% 30.10 in 1.0 mi Calm Calm - N/A   Overcast
11:35 PM 46.4 °F - 46.4 °F 100% 30.09 in 1.0 mi Calm Calm - 0.01 in   Overcast
11:55 PM 46.4 °F - 46.4 °F 100% 30.08 in 1.5 mi Calm Calm - 0.01 in   Overcast